STARLINK-34998, 65474

Orbit data source: Space-Track

STARLINK-34998, 65474 is a payload satellite owned by SpaceX/Seattle (US) in LEO that was launched on Wed, 03 Sep 2025 UTC via an FALCON 9 launch vehicle from the Air Force Eastern Test Range (AFETR). Payload-class satellites include a variety of spacecraft equipped with specific instruments for various scientific and technological missions. These include communications satellites like Starlink; space stations such as the ISS; scientific satellites like the Hubble; Earth observation satellites from companies like Planet Labs, Umbra, and HawkEye 360; GPS; miniature CubeSats for education and research; and military/defense satellites.

Loading next visibility...
Identifier
65474, 2025-195S
Orbit
LEO
Country
Flag of USUS
Related business
Manufacturer
SpaceX/Seattle
Mission
Operational Commercial Communications
Bus & Motor
STARLINK V2MO, Unknown motor
Mass
575 kg wet, ~530 kg dry
Launch date (UTC)
2025-09-03 (10 months ago)
Launch vehicle
FALCON 9
Launch site
Air Force Eastern Test Range (AFETR)
Object type
Payload
Rocket body
Debris
Shape & HBR
Box + 2 Pan, 17.7 m
Radar Cross Section
36.964 m², Large (>1 m²)

Expand to show TLE details & history
Last TLE update: 15 hours ago

TLE from 15 hours ago
0 STARLINK-34998
1 65474U 25195S   26171.22444396  .00024727  00000-0  84326-3 0  9997
2 65474  53.1581 141.8127 0001735  57.9823 302.1346 15.30236208 45676
Epoch: 2026-06-20T05:23Z
TLE epoch observation values (Epoch: 2026-06-20T05:23:11.958Z)
Latitude
-0.00002°
Longitude
152.57073°
Altitude
475.374 km
Speed
7.63 km/s
True Right ascension
09h 27m 15s
True Declination
0° 00' 00"
Sunlit
Object was in daylight at epoch
Visualization orbit readout
Latitude
Unknown
Longitude
Unknown
Altitude
Unknown
Speed
Unknown
Apparent Right ascension
Unknown
Apparent Declination
Unknown
Sunlit
N/A
Visualization observer readout
Local Sidereal Time
07:19:23
Azimuth
Unknown
Elevation
Unknown
Doppler factor
Unknown
Orbital elements
Apogee altitude
476.553 km
Perigee altitude
474.175 km
Semi-major axis
6,853.501 km
Eccentricity
0.00017
Inclination
53.1581°
RAAN
141.8127°
Arg. of periapsis
57.9823°
True anomaly
302.11776°
Mean anomaly
302.1346°
Eccentric anomaly
302.12618°
Mean motion
3.82538 °/min
Orbital period
94.11 mins
BSTAR
0.00084326
Loading maneuver chart data...
Computing Atmospheric mass density...
Loading historical data...
Loading historical data...
Loading historical data...
Loading historical data...
Loading historical data...
Loading historical data...
Loading historical data...

Documentation

Showing up to 5 results
|